Hourly Data Report for October 17, 2016

All times are specified in Local Standard Time (LST). Add 1 hour to adjust for Daylight Saving Time where and when it is observed.

KUGAARUK CLIMATE
NUNAVUT

68°32'15.060" N
89°47'47.020" W
15.80 m
2303094
71407
NBB

Download Data

Hourly Data (October 2016)
Hourly Data Report for October 17, 2016
Temp Definition
°C
Dew Point Temp Definition
°C
Rel Hum Definition
%
Wind Dir Definition
10's deg

Wind Spd Definition
km/h
Visibility Definition
km
Stn Press Definition
kPa
Hmdx Definition


Wind Chill Definition


Weather Definition


TIME
00:00 -8.3 -11.8 76 29 24   101.46   -16 LegendNANA
01:00 -7.9 -12.1 72 28 28   101.47   -17 LegendNANA
02:00 -7.8 -11.9 72 27 24   101.52   -16 LegendNANA
03:00 -7.9 -12.5 70 28 24   101.55   -16 LegendNANA
04:00 -8.0 -12.2 72 27 27   101.56   -16 LegendNANA
05:00 -8.0 -12.0 73 27 26   101.62   -16 LegendNANA
06:00 -8.4 -11.8 76 28 24   101.66   -17 LegendNANA
07:00 -8.1 -11.2 78 29 20   101.69   -15 LegendNANA
08:00 -8.0 -11.0 79 28 23   101.73   -16 LegendNANA
09:00 -7.8 -10.8 79 27 25   101.76   -16 LegendNANA
10:00 -7.7 -11.9 72 28 24   101.80   -16 LegendNANA
11:00 -8.0 -12.6 69 29 22   101.86   -16 LegendNANA
12:00 -8.5 -12.9 71 28 30   101.93   -18 LegendNANA
13:00 -9.0 -11.7 80 27 25   101.98   -17 LegendNANA
14:00 -9.1 -12.3 78 27 30   102.04   -18 LegendNANA
15:00 -9.3 -12.5 78 28 30   102.08   -19 LegendNANA
16:00 -9.6 -13.0 76 26 27   102.13   -19 LegendNANA
17:00 -9.3 -12.4 78 27 22   102.16   -17 LegendNANA
18:00 -9.0 -12.3 76 28 23   102.18   -17 LegendNANA
19:00 -8.7 -12.2 76 29 17   102.21   -16 LegendNANA
20:00 -8.9 -12.7 74 29 20   102.22   -16 LegendNANA
21:00 -9.1 -12.7 75 28 26   102.26   -18 LegendNANA
22:00 -9.4 -12.7 77 28 17   102.31   -16 LegendNANA
23:00 -9.5 -12.6 78 27 20   102.33   -17 LegendNANA

Notes on Data Quality.

Legend

  • E = Estimated
  • M = Missing
  • NA = Not Available
  • ‡ = Partner data that is not subject to review by the National Climate Archives
Date modified: